User: anonymous   Login
Location: Cuiry
(49.3858°N, 3.7708°E)
Time: 23:57:16
(UTC+00:00)
Language:

BREEZE-M DEB (TANK) - Orbit

View from above orbital plane
View from above orbital plane
View from above satellite
View from above satellite

Ground track
Ground track

The orbit is defined by the following mean orbital elements,

1 39010U          26074.46712288 +.00000000 +00000-0 +91464-3 0 00000
2 39010  49.6449 251.5740 4585218  65.5257 335.0821  6.31511831    09
Epoch (UTC): 15 March 2026 11:12:39
Eccentricity: 0.4585218
inclination: 49.6449°
perigee height: 317 km
apogee height: 11655 km
right ascension of ascending node: 251.5740°
argument of perigee: 65.5257°
revolutions per day: 6.31511831
mean anomaly at epoch: 335.0821°

The dashed part of the orbit path shows where the satellite is in the earth's shadow,  

DLR